Retour au catalogue

COSMOS 2491 DEB

LostPO
NORAD 57547·DEBRIS·🇷🇺 Russia

Lancé Dec 25, 2013 depuis Plesetsk Cosmodrome

Loading…

Prochains Passages (prochaines 24 heures)

TLE

PériméSource: Space-Track

Époque: Jul 9, 2026, 14:54 UTC

1 57547U 13076AJ  26190.62130399  .00001093  00000-0  71877-2 0  9991
2 57547  82.4641 144.5643 0018337  15.8415 344.3238 12.49344625144240

Suivez COSMOS 2491 DEB en temps réel avec AllMySat

Download on the App Store